Home   Weather   Israel   Beersheba   Past weeks
Flag for Israel

Past Weather in Beersheba, Israel — Yesterday and Last 2 Weeks

Currently: 81 °F. Passing clouds. (Weather station: Ben Gurion International Airport, Israel). See more current weather

Past Weather in Beersheba — Graph

°F

Beersheba Temperature Yesterday

Maximum temperature yesterday: 81 °F (at 12:50 pm)
Minimum temperature yesterday: 66 °F (at 5:20 am)
Average temperature yesterday: 74 °F

High & Low Weather Summary for the Past Weeks

 TemperatureHumidityPressure
High104 °F (May 9, 11:50 am)94% (May 10, 1:50 am)29.98 "Hg (May 10, 1:50 am)
Low63 °F (May 8, 6:50 am)9% (May 9, 10:20 am)29.71 "Hg (May 16, 10:20 pm)
Average75 °F55%29.86 "Hg
* Reported May 3 12:20 pm — May 18 12:50 pm, Beersheba. Weather by CustomWeather, © 2021

Note: Actual official high and low records may vary slightly from our data, if they occured in-between our weather recording intervals... More about our weather records

Beersheba Weather History for the Previous 24 Hours

Scroll right to see more
 ConditionsComfort  
Time TempWeatherWind HumidityBarometerVisibility
12:50 pm
Tue, May 18
79 °FPassing clouds.12 mph54%29.92 "HgN/A
12:20 pm79 °FPassing clouds.10 mph54%29.92 "HgN/A
11:50 am79 °FPassing clouds.7 mph54%29.92 "HgN/A
10:50 am77 °FPassing clouds.6 mph54%29.92 "HgN/A
10:20 am75 °FPassing clouds.3 mph57%29.92 "HgN/A
9:50 am75 °FScattered clouds.2 mph57%29.92 "HgN/A
9:20 am75 °FScattered clouds.2 mph57%29.95 "HgN/A
8:50 am73 °FScattered clouds.2 mph61%29.92 "HgN/A
8:20 am73 °FPassing clouds.2 mph61%29.95 "HgN/A
7:50 am70 °FPassing clouds.3 mph73%29.92 "HgN/A
7:20 am68 °FPassing clouds.5 mph73%29.92 "HgN/A
6:50 am66 °FPassing clouds.5 mph78%29.92 "HgN/A
6:20 am66 °FSunny.5 mph78%29.92 "Hg10 mi
5:50 am64 °FSunny.2 mph83%29.92 "Hg10 mi
5:20 am66 °FPassing clouds.2 mph78%29.89 "HgN/A
4:50 am66 °FPassing clouds.3 mph78%29.89 "HgN/A
4:20 am66 °FPassing clouds.6 mph78%29.89 "HgN/A
3:50 am66 °FPassing clouds.6 mph78%29.89 "HgN/A
3:20 am68 °FPassing clouds.5 mph78%29.89 "HgN/A
2:50 am66 °FPassing clouds.3 mph78%29.89 "HgN/A
2:20 am68 °FPassing clouds.3 mph73%29.89 "HgN/A
1:50 am68 °FPassing clouds.6 mph73%29.89 "HgN/A
1:20 am70 °FPassing clouds.6 mph69%29.89 "HgN/A
12:50 am68 °FPassing clouds.2 mph73%29.92 "HgN/A
12:20 am70 °FPassing clouds.5 mph73%29.92 "HgN/A
11:50 pm
Mon, May 17
70 °FClear.8 mph69%29.92 "Hg10 mi
11:20 pm70 °FClear.7 mph73%29.92 "Hg10 mi
10:50 pm70 °FClear.7 mph73%29.92 "Hg10 mi
10:20 pm70 °FClear.7 mph73%29.89 "Hg10 mi
9:20 pm72 °FClear.8 mph69%29.89 "Hg10 mi
8:50 pm72 °FClear.8 mph69%29.89 "Hg10 mi
8:20 pm72 °FClear.6 mph69%29.89 "Hg10 mi
7:50 pm73 °FPassing clouds.7 mph65%29.89 "HgN/A
7:20 pm73 °FPassing clouds.8 mph65%29.86 "HgN/A
6:50 pm73 °FPassing clouds.10 mph65%29.86 "HgN/A
6:20 pm75 °FPassing clouds.9 mph61%29.86 "HgN/A
5:50 pm75 °FPassing clouds.12 mph61%29.86 "HgN/A
5:20 pm77 °FPassing clouds.12 mph57%29.86 "HgN/A
4:50 pm79 °FPassing clouds.12 mph54%29.86 "HgN/A
4:20 pm79 °FSunny.12 mph54%29.86 "Hg10 mi
3:50 pm79 °FSunny.13 mph58%29.86 "Hg10 mi
3:20 pm79 °FSunny.13 mph51%29.86 "Hg10 mi
2:50 pm79 °FSunny.12 mph51%29.86 "Hg10 mi
2:20 pm81 °FSunny.12 mph48%29.86 "Hg10 mi
1:50 pm81 °FPassing clouds.12 mph48%29.83 "HgN/A
1:20 pm79 °FPassing clouds.12 mph54%29.86 "HgN/A
Weather by CustomWeather, © 2021

See weather overview